sat.trackr.live / text

‹ back to catalog

RASSVET-3 16

NORAD 68375 · 2026-061R

PAYLOAD ACTIVE UNKNOWN

§ Identity

Operator
Country
CIS
Launch date
2026-03-23
Launch site
PLMSC
Launch vehicle
Mass (kg)
RCS (m²)

External: N2YO · Heavens-Above · Gunter

§ Orbital elements

Epoch: 2026-05-25T03:11:13.538976Z

Period
90.94 min
Inclination
82.2963°
Eccentricity
0.0014079
Mean motion
15.83427511 rev/d
Perigee alt
311.3 km
Apogee alt
330.2 km
Semi-major
6,698.9 km
B*
2.7589e-4
RAAN
38.5402°
Arg perigee
184.2024°
Mean anomaly
175.9128°
Rev number
988

§ Raw data

RASSVET-3 161 68375U 26061R   26145.13279559  .00060520  00000+0  27589-3 0  99992 68375  82.2963  38.5402 0014079 184.2024 175.9128 15.83427511  9880

JSON: /api/v1/satellites/68375 · /tle

For live sub-satellite position, see the globe view (requires WebGL).

§ Visibility from observer

Set your observer location to see the next 7 days of passes ≥ 10°. The values pass through the URL so the page stays shareable.

No JS? Fill the form by hand. The geolocation button needs JavaScript.